MET'MAP v2.0
soon released !

Expected late october,
this new version will be
more efficient, smarter,
and hosted on a brand new
server x3 powerfull...
...and still free !


Not compatible ?
Try the mobile version !

LOG IN : | Subscribe | Disclaimer | Who is Orbifly ? |
ICAO code :

TAF - LFPC Creil - 29 Jan 2020 12:30 UTC
Data Sources :     NOAA   


- Airport Elevation : 291 ft
- IATA code : CSF
- No reported NOTAMs.


LFPC - Creil

Latest METAR recorded : 0000/00/00 G :29 TAF ETNG 290800Z 2909/2924 25013G25KT 9999 BKN024 TEMPO 2909/2917 26017G30KT -SHRA SCT018TCU BKN020 BECMG 2916/2918 24009KT BEMCG 2921/2923 23012G20KT
NO TAF


MET'MAP, your aeronautical weather chart ! - Copyright ORBIFLY December 2007

Programming & Development : Alexandra Zaïnal
Co-Developer : Marc-Olivier Méhu
Technical & hardware support : Manuel Goepfert
Concept & Financing : Baudouin d'Aumeries